Location: Devore Heights
(34.2372°N, 117.4156°W)
Time: 01:58:59
(UTC+00:00)

A-11 Canister half - Pass Details

Date: 18 September 2024
Orbit: 1515 x 1684 km, 47.2° (Epoch: 06 October)

Event Time Altitude Azimuth Distance (km) Brightness Sun altitude
Rises 03:33:45 0° 273° (W) 4,725 12.9 -21.4°
Reaches altitude 10° 03:37:09 10° 281° (WNW) 3,722 12.1 -22.1°
Maximum altitude 03:45:46 39° 349° (NNW) 2,132 9.9 -23.8°
Enters shadow 03:53:20 13° 53° (NE) 3,411 10.5 -25.2°
